Location: Arclight Observatory
(36.5667°N, 87.3333°W)
Time: 22:59:35
(UTC-06:00)

ISS - Visible Passes

Search period start: 28 November 2014 00:00
Search period end: 08 December 2014 00:00
Orbit: 407 x 417 km, 51.6° (Epoch: 29 November)

Date Brightness Start Highest point End Pass type
(mag) Time Alt. Az. Time Alt. Az. Time Alt. Az.
28 Nov -3.0 05:00:16 54° N 05:00:37 58° NE 05:03:52 10° ESE visible
29 Nov -0.3 04:12:47 16° E 04:12:47 16° E 04:13:41 10° E visible
29 Nov -1.8 05:45:37 16° W 05:47:12 22° SW 05:49:49 10° S visible
30 Nov -2.3 04:58:12 36° S 04:58:12 36° S 05:00:34 10° SSE visible
01 Dec 0.1 04:10:48 10° SE 04:10:48 10° SE 04:10:50 10° SE visible
04 Dec -0.6 18:15:25 10° SSE 18:15:28 10° SSE 18:15:28 10° SSE visible
05 Dec -0.2 19:00:18 10° SW 19:00:45 13° SW 19:00:45 13° SW visible
06 Dec -2.6 18:10:23 10° SSW 18:13:06 41° SSE 18:13:06 41° SSE visible
07 Dec -1.7 17:20:52 10° S 17:23:29 22° SE 17:25:21 14° E visible
07 Dec -0.5 18:56:59 10° W 18:58:09 18° W 18:58:09 18° W visible
